| time (UTC) | temp C | wind direction | speed KPH | gust KPH | rain 1hr cm | rain 24hr cm | rain mn cm | humidity % | barometer mb |
| 20260509044356 | 6 | 198 | 0.0 | 0.0 | 0.00 | 0.00 | 0.00 | 87 | 1022.3 |
| 20260509043340 | 5 | 198 | 0.0 | 0.0 | 0.00 | 0.00 | 0.00 | 87 | 1022.2 |
| 20260509042319 | 5 | 198 | 0.0 | 0.0 | 0.00 | 0.00 | 0.00 | 86 | 1022.1 |
| 20260509041342 | 6 | 347 | 0.0 | 0.0 | 0.00 | 0.00 | 0.00 | 86 | 1022.0 |
| 20260509040323 | 6 | 347 | 0.0 | 0.0 | 0.00 | 0.00 | 0.00 | 86 | 1022.0 |
| 20260509035316 | 5 | 347 | 0.0 | 0.0 | 0.00 | 0.00 | 0.00 | 87 | 1022.0 |
| 20260509033243 | 5 | 347 | 0.0 | 0.0 | 0.00 | 0.00 | 0.00 | 87 | 1022.0 |
| 20260509032251 | 5 | 347 | 0.0 | 0.0 | 0.00 | 0.00 | 0.00 | 87 | 1022.0 |
| 20260509031219 | 5 | 347 | 0.0 | 0.0 | 0.00 | 0.00 | 0.00 | 86 | 1022.0 |
| 20260509025116 | 5 | 347 | 0.0 | 0.0 | 0.00 | 0.00 | 0.00 | 86 | 1021.9 |
| 20260509021823 | 5 | 226 | 0.0 | 0.0 | 0.00 | 0.00 | 0.00 | 86 | 1021.8 |
| 20260509020815 | 5 | 226 | 0.0 | 0.0 | 0.00 | 0.00 | 0.00 | 86 | 1021.9 |
| 20260509015756 | 5 | 226 | 0.0 | 0.0 | 0.00 | 0.00 | 0.00 | 86 | 1021.9 |
| 20260509013614 | 5 | 225 | 0.0 | 0.0 | 0.00 | 0.00 | 0.00 | 85 | 1021.8 |
| 20260509012558 | 5 | 225 | 0.0 | 0.0 | 0.00 | 0.00 | 0.00 | 84 | 1021.7 |
| 20260509011612 | 6 | 225 | 0.0 | 0.0 | 0.00 | 0.00 | 0.00 | 84 | 1021.7 |
| 20260509010631 | 6 | 225 | 0.0 | 0.0 | 0.00 | 0.00 | 0.00 | 83 | 1021.6 |
| 20260509005614 | 6 | 224 | 0.0 | 0.0 | 0.00 | 0.00 | 0.00 | 83 | 1021.7 |
| 20260509004617 | 6 | 224 | 0.0 | 0.0 | 0.00 | 0.00 | 0.00 | 83 | 1021.5 |
| 20260509003605 | 6 | 224 | 0.0 | 0.0 | 0.00 | 0.00 | 0.00 | 82 | 1021.5 |
| 20260509002541 | 6 | 224 | 0.0 | 0.0 | 0.00 | 0.00 | 0.00 | 81 | 1021.5 |
| 20260509001600 | 7 | 224 | 0.0 | 0.0 | 0.00 | 0.00 | 0.00 | 80 | 1021.3 |
| 20260509000624 | 7 | 224 | 0.0 | 0.0 | 0.00 | 0.00 | 0.00 | 79 | 1021.3 |
| 20260508234412 | 7 | 224 | 0.0 | 0.0 | 0.00 | 0.00 | 0.00 | 78 | 1021.3 |
| 20260508233341 | 7 | 224 | 0.0 | 0.0 | 0.00 | 0.00 | 0.00 | 77 | 1021.3 |
| 20260508232317 | 7 | 224 | 0.0 | 0.0 | 0.00 | 0.00 | 0.00 | 77 | 1021.3 |
| 20260508231304 | 7 | 222 | 0.0 | 0.0 | 0.00 | 0.00 | 0.00 | 76 | 1021.2 |
| 20260508225149 | 7 | 226 | 0.0 | 0.0 | 0.00 | 0.00 | 0.00 | 76 | 1021.0 |
| 20260508224136 | 7 | 258 | 0.0 | 0.0 | 0.00 | 0.00 | 0.00 | 75 | 1021.0 |
| 20260508223141 | 7 | 259 | 0.0 | 0.0 | 0.00 | 0.00 | 0.00 | 75 | 1020.9 |
| 20260508222108 | 7 | 259 | 0.0 | 0.0 | 0.00 | 0.00 | 0.00 | 75 | 1020.9 |
| 20260508221124 | 8 | 258 | 0.0 | 0.0 | 0.00 | 0.00 | 0.00 | 74 | 1020.8 |
| 20260508220111 | 8 | 259 | 0.0 | 0.0 | 0.00 | 0.00 | 0.00 | 74 | 1020.7 |
| 20260508215119 | 8 | 258 | 0.0 | 0.0 | 0.00 | 0.00 | 0.00 | 73 | 1020.6 |
| 20260508214053 | 8 | 259 | 0.0 | 0.0 | 0.00 | 0.00 | 0.00 | 72 | 1020.5 |
| 20260508213101 | 8 | 258 | 0.0 | 0.0 | 0.00 | 0.00 | 0.00 | 71 | 1020.3 |
| 20260508212049 | 8 | 258 | 0.0 | 0.0 | 0.00 | 0.00 | 0.00 | 70 | 1020.3 |
| 20260508205934 | 9 | 259 | 0.0 | 0.0 | 0.00 | 0.00 | 0.00 | 68 | 1020.2 |
| 20260508204940 | 9 | 259 | 0.0 | 0.0 | 0.00 | 0.00 | 0.00 | 66 | 1020.1 |
| 20260508203904 | 10 | 258 | 0.0 | 0.0 | 0.00 | 0.00 | 0.00 | 64 | 1020.0 |
| 20260508202859 | 10 | 263 | 0.0 | 0.0 | 0.00 | 0.00 | 0.00 | 61 | 1019.9 |
| 20260508201842 | 10 | 283 | 0.0 | 0.0 | 0.00 | 0.00 | 0.00 | 61 | 1019.8 |
| 20260508200856 | 10 | 284 | 0.0 | 0.0 | 0.00 | 0.00 | 0.00 | 61 | 1019.7 |
| 20260508195901 | 11 | 284 | 0.0 | 0.0 | 0.00 | 0.00 | 0.00 | 60 | 1019.6 |
| 20260508194922 | 11 | 284 | 0.0 | 0.0 | 0.00 | 0.00 | 0.00 | 60 | 1019.5 |
| 20260508193923 | 11 | 283 | 0.0 | 0.0 | 0.00 | 0.00 | 0.00 | 59 | 1019.4 |
| 20260508192917 | 11 | 236 | 0.0 | 0.0 | 0.00 | 0.00 | 0.00 | 59 | 1019.4 |
| 20260508191907 | 11 | 309 | 0.0 | 0.0 | 0.00 | 0.00 | 0.00 | 58 | 1019.3 |
| 20260508190856 | 11 | 241 | 0.0 | 0.0 | 0.00 | 0.00 | 0.00 | 58 | 1019.1 |
| 20260508185827 | 11 | 281 | 0.0 | 0.0 | 0.00 | 0.00 | 0.00 | 58 | 1019.0 |
| 20260508184848 | 12 | 271 | 0.0 | 0.0 | 0.00 | 0.00 | 0.00 | 58 | 1018.9 |
| 20260508182759 | 12 | 321 | 0.0 | 0.0 | 0.00 | 0.00 | 0.00 | 58 | 1018.8 |
| 20260508181729 | 12 | 290 | 0.0 | 0.0 | 0.00 | 0.00 | 0.00 | 58 | 1018.6 |
| 20260508180655 | 12 | 134 | 0.0 | 0.0 | 0.00 | 0.00 | 0.00 | 57 | 1018.4 |
| 20260508175632 | 12 | 306 | 0.0 | 4.8 | 0.00 | 0.00 | 0.00 | 57 | 1018.4 |
| 20260508172327 | 13 | 153 | 0.0 | 3.2 | 0.00 | 0.00 | 0.00 | 55 | 1018.0 |
| 20260508171318 | 13 | 278 | 0.0 | 3.2 | 0.00 | 0.00 | 0.00 | 54 | 1018.0 |
| 20260508170310 | 13 | 211 | 0.0 | 3.2 | 0.00 | 0.00 | 0.00 | 53 | 1017.9 |
| 20260508165310 | 13 | 293 | 0.0 | 6.4 | 0.00 | 0.00 | 0.00 | 53 | 1017.8 |
| 20260508164303 | 13 | 300 | 0.0 | 0.0 | 0.00 | 0.00 | 0.00 | 53 | 1017.8 |
| 20260508163312 | 14 | 229 | 0.0 | 3.2 | 0.00 | 0.00 | 0.00 | 51 | 1017.7 |
| 20260508162306 | 14 | 190 | 0.0 | 6.4 | 0.00 | 0.00 | 0.00 | 51 | 1017.6 |
| 20260508160128 | 15 | 158 | 0.0 | 9.7 | 0.00 | 0.00 | 0.00 | 52 | 1017.7 |
| 20260508155136 | 14 | 169 | 0.0 | 0.0 | 0.00 | 0.00 | 0.00 | 54 | 1017.7 |
| 20260508154115 | 13 | 176 | 0.0 | 11.3 | 0.00 | 0.00 | 0.00 | 55 | 1017.6 |
| 20260508153134 | 13 | 177 | 0.0 | 3.2 | 0.00 | 0.00 | 0.00 | 56 | 1017.6 |
| 20260508152115 | 13 | 178 | 0.0 | 0.0 | 0.00 | 0.00 | 0.00 | 55 | 1017.6 |
| 20260508151100 | 13 | 203 | 0.0 | 0.0 | 0.00 | 0.00 | 0.00 | 55 | 1017.6 |
| 20260508143734 | 14 | 208 | 0.0 | 3.2 | 0.00 | 0.00 | 0.00 | 53 | 1017.4 |
| 20260508142748 | 13 | 293 | 0.0 | 4.8 | 0.00 | 0.00 | 0.00 | 56 | 1017.3 |
| 20260508141753 | 14 | 269 | 0.0 | 6.4 | 0.00 | 0.00 | 0.00 | 56 | 1017.2 |
| 20260508140728 | 15 | 132 | 0.0 | 3.2 | 0.00 | 0.00 | 0.00 | 55 | 1017.1 |
| 20260508135735 | 15 | 314 | 0.0 | 1.6 | 0.00 | 0.00 | 0.00 | 57 | 1017.1 |
| 20260508134746 | 14 | 281 | 0.0 | 8.0 | 0.00 | 0.00 | 0.00 | 58 | 1017.0 |
| 20260508132657 | 14 | 240 | 0.0 | 1.6 | 0.00 | 0.00 | 0.00 | 56 | 1016.9 |
| 20260508131701 | 14 | 324 | 0.0 | 0.0 | 0.00 | 0.00 | 0.00 | 57 | 1016.9 |
| 20260508130716 | 14 | 217 | 0.0 | 6.4 | 0.00 | 0.00 | 0.00 | 54 | 1016.9 |
| 20260508125652 | 15 | 225 | 0.0 | 3.2 | 0.00 | 0.00 | 0.00 | 56 | 1016.8 |
| 20260508124630 | 14 | 224 | 0.0 | 4.8 | 0.00 | 0.00 | 0.00 | 55 | 1016.8 |
| 20260508122451 | 13 | 232 | 0.0 | 4.8 | 0.00 | 0.00 | 0.00 | 58 | 1016.7 |
| 20260508121500 | 13 | 169 | 0.0 | 6.4 | 0.00 | 0.00 | 0.00 | 58 | 1016.7 |
| 20260508120447 | 13 | 308 | 0.0 | 9.7 | 0.00 | 0.00 | 0.00 | 59 | 1016.8 |
| 20260508114256 | 13 | 176 | 0.0 | 0.0 | 0.00 | 0.00 | 0.00 | 61 | 1016.7 |
| 20260508113253 | 13 | 190 | 0.0 | 1.6 | 0.00 | 0.00 | 0.00 | 61 | 1016.6 |
| 20260508110003 | 12 | 214 | 0.0 | 6.4 | 0.00 | 0.00 | 0.00 | 65 | 1016.6 |
| 20260508104959 | 12 | 242 | 0.0 | 6.4 | 0.00 | 0.00 | 0.00 | 65 | 1016.6 |
| 20260508103924 | 12 | 226 | 0.0 | 0.0 | 0.00 | 0.00 | 0.00 | 67 | 1016.5 |
| 20260508102932 | 11 | 222 | 0.0 | 1.6 | 0.00 | 0.00 | 0.00 | 70 | 1016.4 |
| 20260508100825 | 11 | 209 | 0.0 | 1.6 | 0.00 | 0.00 | 0.00 | 70 | 1016.3 |
| 20260508093527 | 11 | 313 | 0.0 | 3.2 | 0.00 | 0.00 | 0.00 | 72 | 1016.0 |
| 20260508092503 | 11 | 300 | 0.0 | 4.8 | 0.00 | 0.00 | 0.00 | 70 | 1015.9 |
| 20260508091526 | 12 | 291 | 0.0 | 0.0 | 0.00 | 0.00 | 0.00 | 67 | 1015.7 |
| 20260508090533 | 12 | 177 | 0.0 | 4.8 | 0.00 | 0.00 | 0.00 | 66 | 1015.7 |
| 20260508085516 | 12 | 190 | 0.0 | 4.8 | 0.00 | 0.00 | 0.00 | 66 | 1015.7 |
| 20260508082216 | 11 | 218 | 0.0 | 3.2 | 0.00 | 0.00 | 0.00 | 73 | 1015.5 |
| 20260508081149 | 10 | 198 | 0.0 | 0.0 | 0.00 | 0.00 | 0.00 | 74 | 1015.5 |
| 20260508080152 | 10 | 248 | 0.0 | 0.0 | 0.00 | 0.00 | 0.00 | 75 | 1015.4 |
| 20260508075208 | 10 | 207 | 0.0 | 0.0 | 0.00 | 0.00 | 0.00 | 78 | 1015.3 |
| 20260508073027 | 10 | 198 | 0.0 | 0.0 | 0.00 | 0.00 | 0.00 | 80 | 1015.0 |
| 20260508072025 | 10 | 228 | 0.0 | 0.0 | 0.00 | 0.00 | 0.00 | 81 | 1014.9 |
| 20260508070950 | 10 | 228 | 0.0 | 1.6 | 0.00 | 0.00 | 0.00 | 81 | 1014.7 |
| 20260508064819 | 9 | 168 | 0.0 | 0.0 | 0.00 | 0.00 | 0.00 | 85 | 1014.5 |
| 20260508063802 | 9 | 240 | 0.0 | 0.0 | 0.00 | 0.00 | 0.00 | 84 | 1014.5 |
| 20260508061547 | 9 | 158 | 0.0 | 0.0 | 0.00 | 0.00 | 0.00 | 84 | 1014.3 |
| 20260508060606 | 9 | 236 | 0.0 | 0.0 | 0.00 | 0.00 | 0.00 | 85 | 1014.2 |
| 20260508055539 | 9 | 216 | 0.0 | 0.0 | 0.00 | 0.00 | 0.00 | 85 | 1014.1 |
| 20260508054603 | 9 | 226 | 0.0 | 3.2 | 0.00 | 0.00 | 0.00 | 84 | 1013.9 |
| 20260508053625 | 9 | 267 | 0.0 | 0.0 | 0.00 | 0.00 | 0.00 | 84 | 1013.8 |
| 20260508052559 | 9 | 150 | 0.0 | 3.2 | 0.00 | 0.00 | 0.00 | 84 | 1013.7 |
| 20260508051542 | 9 | 173 | 0.0 | 0.0 | 0.00 | 0.00 | 0.00 | 84 | 1013.6 |
| 20260508050509 | 9 | 145 | 0.0 | 0.0 | 0.00 | 0.00 | 0.00 | 83 | 1013.5 |